Time,TemperatureF,DewpointF,PressureIn,WindDirection,WindDirectionDegrees,WindSpeedMPH,WindSpeedGustMPH,Humidity,HourlyPrecipIn,Conditions,Clouds,dailyrainin,SoftwareType,DateUTC
2013-11-17 00:13:00,47.0,46.0,30.17,East,86,0.0,-999.0,97,-99.99,,,0.00,weatherlink.com 1.10,2013-11-17 05:13:00,
2013-11-17 00:28:00,47.5,47.0,30.16,East,86,2.0,-999.0,97,-99.99,,,0.00,weatherlink.com 1.10,2013-11-17 05:28:00,
2013-11-17 00:43:00,47.9,47.0,30.16,East,86,0.0,-999.0,97,-99.99,,,0.00,weatherlink.com 1.10,2013-11-17 05:43:00,
2013-11-17 00:58:00,48.3,48.0,30.16,East,86,0.0,-999.0,97,-99.99,,,0.00,weatherlink.com 1.10,2013-11-17 05:58:00,
2013-11-17 01:13:00,48.7,48.0,30.16,East,86,0.0,-999.0,97,-99.99,,,0.00,weatherlink.com 1.10,2013-11-17 06:13:00,
2013-11-17 01:28:00,49.0,48.0,30.16,East,85,0.0,-999.0,97,-99.99,,,0.00,weatherlink.com 1.10,2013-11-17 06:28:00,
2013-11-17 01:43:00,49.2,48.0,30.16,East,85,0.0,-999.0,97,-99.99,,,0.00,weatherlink.com 1.10,2013-11-17 06:43:00,
2013-11-17 01:58:00,49.3,48.0,30.15,East,85,2.0,-999.0,96,-99.99,,,0.00,weatherlink.com 1.10,2013-11-17 06:58:00,
2013-11-17 02:13:00,49.6,49.0,30.15,East,82,0.0,-999.0,96,-99.99,,,0.00,weatherlink.com 1.10,2013-11-17 07:13:00,
2013-11-17 02:28:00,49.7,49.0,30.15,NNE,18,3.0,-999.0,96,-99.99,,,0.00,weatherlink.com 1.10,2013-11-17 07:28:00,
2013-11-17 02:43:00,50.1,49.0,30.13,NNE,25,2.0,-999.0,96,-99.99,,,0.00,weatherlink.com 1.10,2013-11-17 07:43:00,
2013-11-17 02:58:00,50.4,49.0,30.14,NNE,33,1.0,-999.0,96,-99.99,,,0.00,weatherlink.com 1.10,2013-11-17 07:58:00,
2013-11-17 03:13:00,50.7,50.0,30.14,NNE,33,0.0,-999.0,96,-99.99,,,0.00,weatherlink.com 1.10,2013-11-17 08:13:00,
2013-11-17 03:28:00,50.8,50.0,30.14,NNE,33,1.0,-999.0,96,-99.99,,,0.00,weatherlink.com 1.10,2013-11-17 08:28:00,
2013-11-17 03:43:00,50.7,50.0,30.13,NNE,33,0.0,-999.0,96,-99.99,,,0.00,weatherlink.com 1.10,2013-11-17 08:43:00,
2013-11-17 03:58:00,50.8,50.0,30.13,NNE,33,0.0,-999.0,96,-99.99,,,0.00,weatherlink.com 1.10,2013-11-17 08:58:00,
2013-11-17 04:13:00,50.7,50.0,30.13,NNE,33,0.0,-999.0,96,-99.99,,,0.00,weatherlink.com 1.10,2013-11-17 09:13:00,
2013-11-17 04:28:00,50.9,50.0,30.12,NNE,33,0.0,-999.0,97,-99.99,,,0.00,weatherlink.com 1.10,2013-11-17 09:28:00,
2013-11-17 04:43:00,51.0,50.0,30.12,NNE,33,1.0,-999.0,97,-99.99,,,0.00,weatherlink.com 1.10,2013-11-17 09:43:00,
2013-11-17 04:58:00,51.1,50.0,30.13,NNE,33,0.0,-999.0,97,-99.99,,,0.00,weatherlink.com 1.10,2013-11-17 09:58:00,
2013-11-17 05:13:00,51.4,51.0,30.12,NNE,33,0.0,-999.0,97,-99.99,,,0.00,weatherlink.com 1.10,2013-11-17 10:13:00,
2013-11-17 05:28:00,51.9,51.0,30.12,NE,38,0.0,-999.0,97,-99.99,,,0.00,weatherlink.com 1.10,2013-11-17 10:28:00,
2013-11-17 05:43:00,52.2,51.0,30.11,NE,56,0.0,-999.0,97,-99.99,,,0.00,weatherlink.com 1.10,2013-11-17 10:43:00,
2013-11-17 05:58:00,52.6,52.0,30.11,ENE,57,2.0,-999.0,97,-99.99,,,0.00,weatherlink.com 1.10,2013-11-17 10:58:00,
2013-11-17 06:13:00,52.8,52.0,30.11,ENE,57,0.0,-999.0,97,-99.99,,,0.00,weatherlink.com 1.10,2013-11-17 11:13:00,
2013-11-17 06:28:00,53.0,52.0,30.11,ENE,57,0.0,-999.0,97,-99.99,,,0.00,weatherlink.com 1.10,2013-11-17 11:28:00,
2013-11-17 06:43:00,53.0,52.0,30.10,ENE,57,0.0,-999.0,97,-99.99,,,0.00,weatherlink.com 1.10,2013-11-17 11:43:00,
2013-11-17 06:58:00,53.1,52.0,30.10,ENE,57,0.0,-999.0,97,-99.99,,,0.00,weatherlink.com 1.10,2013-11-17 11:58:00,
2013-11-17 07:13:00,53.3,53.0,30.09,ENE,57,0.0,-999.0,97,-99.99,,,0.00,weatherlink.com 1.10,2013-11-17 12:13:00,
2013-11-17 07:28:00,53.7,53.0,30.09,ENE,57,0.0,-999.0,98,-99.99,,,0.00,weatherlink.com 1.10,2013-11-17 12:28:00,
2013-11-17 07:43:00,54.3,54.0,30.09,ENE,57,0.0,-999.0,98,-99.99,,,0.00,weatherlink.com 1.10,2013-11-17 12:43:00,
2013-11-17 07:58:00,54.7,54.0,30.09,ENE,57,0.0,-999.0,98,-99.99,,,0.00,weatherlink.com 1.10,2013-11-17 12:58:00,
2013-11-17 08:13:00,55.3,55.0,30.09,ENE,57,2.0,-999.0,98,-99.99,,,0.00,weatherlink.com 1.10,2013-11-17 13:13:00,
2013-11-17 08:28:00,56.7,56.0,30.09,ENE,57,0.0,-999.0,98,-99.99,,,0.00,weatherlink.com 1.10,2013-11-17 13:28:00,
2013-11-17 08:43:00,57.7,57.0,30.09,ENE,78,0.0,-999.0,98,-99.99,,,0.00,weatherlink.com 1.10,2013-11-17 13:43:00,
2013-11-17 08:58:00,58.6,58.0,30.09,ENE,77,0.0,-999.0,98,-99.99,,,0.00,weatherlink.com 1.10,2013-11-17 13:58:00,
2013-11-17 09:13:00,59.2,59.0,30.08,East,86,0.0,-999.0,98,-99.99,,,0.00,weatherlink.com 1.10,2013-11-17 14:13:00,
2013-11-17 09:28:00,59.6,59.0,30.08,East,88,0.0,-999.0,98,-99.99,,,0.00,weatherlink.com 1.10,2013-11-17 14:28:00,
2013-11-17 09:43:00,60.0,60.0,30.08,East,88,0.0,-999.0,98,-99.99,,,0.00,weatherlink.com 1.10,2013-11-17 14:43:00,
2013-11-17 09:58:00,60.3,60.0,30.08,East,92,0.0,-999.0,97,-99.99,,,0.00,weatherlink.com 1.10,2013-11-17 14:58:00,
2013-11-17 10:13:00,60.7,60.0,30.08,ESE,105,0.0,-999.0,97,-99.99,,,0.00,weatherlink.com 1.10,2013-11-17 15:13:00,
2013-11-17 10:28:00,60.9,60.0,30.08,ESE,117,0.0,-999.0,96,-99.99,,,0.00,weatherlink.com 1.10,2013-11-17 15:28:00,
2013-11-17 10:43:00,61.1,60.0,30.07,ESE,117,2.0,-999.0,96,-99.99,,,0.00,weatherlink.com 1.10,2013-11-17 15:43:00,
2013-11-17 10:58:00,61.1,60.0,30.06,ESE,118,0.0,-999.0,96,-99.99,,,0.00,weatherlink.com 1.10,2013-11-17 15:58:00,
2013-11-17 11:13:00,61.0,60.0,30.05,ESE,120,0.0,-999.0,96,-99.99,,,0.00,weatherlink.com 1.10,2013-11-17 16:13:00,
2013-11-17 11:28:00,61.0,60.0,30.04,ESE,121,0.0,-999.0,96,-99.99,,,0.00,weatherlink.com 1.10,2013-11-17 16:28:00,
2013-11-17 11:43:00,61.2,60.0,30.03,SE,128,0.0,-999.0,96,-99.99,,,0.00,weatherlink.com 1.10,2013-11-17 16:43:00,
2013-11-17 11:58:00,61.3,61.0,30.02,SSE,153,0.0,-999.0,97,-99.99,,,0.00,weatherlink.com 1.10,2013-11-17 16:58:00,
2013-11-17 12:13:00,61.4,61.0,30.02,South,171,0.0,-999.0,97,-99.99,,,0.00,weatherlink.com 1.10,2013-11-17 17:13:00,
2013-11-17 12:28:00,61.6,61.0,30.02,South,171,0.0,-999.0,97,-99.99,,,0.00,weatherlink.com 1.10,2013-11-17 17:28:00,
2013-11-17 12:43:00,61.8,61.0,30.00,South,169,0.0,-999.0,97,-99.99,,,0.00,weatherlink.com 1.10,2013-11-17 17:43:00,
2013-11-17 12:58:00,61.9,61.0,30.00,South,174,0.0,-999.0,97,-99.99,,,0.00,weatherlink.com 1.10,2013-11-17 17:58:00,
2013-11-17 13:13:00,61.8,61.0,29.99,SE,143,0.0,-999.0,97,-99.99,,,0.00,weatherlink.com 1.10,2013-11-17 18:13:00,
2013-11-17 13:28:00,61.9,61.0,29.98,SE,144,2.0,-999.0,97,-99.99,,,0.00,weatherlink.com 1.10,2013-11-17 18:28:00,
2013-11-17 13:43:00,62.0,61.0,29.97,SSW,209,0.0,-999.0,97,-99.99,,,0.00,weatherlink.com 1.10,2013-11-17 18:43:00,
2013-11-17 13:58:00,62.4,62.0,29.96,SSW,204,0.0,-999.0,97,-99.99,,,0.00,weatherlink.com 1.10,2013-11-17 18:58:00,
2013-11-17 14:13:00,62.8,62.0,29.96,SSW,203,0.0,-999.0,97,-99.99,,,0.00,weatherlink.com 1.10,2013-11-17 19:13:00,
2013-11-17 14:28:00,63.1,62.0,29.96,SSW,201,0.0,-999.0,96,-99.99,,,0.00,weatherlink.com 1.10,2013-11-17 19:28:00,
2013-11-17 14:43:00,63.3,62.0,29.96,SSW,200,0.0,-999.0,95,-99.99,,,0.00,weatherlink.com 1.10,2013-11-17 19:43:00,
2013-11-17 14:58:00,63.5,62.0,29.96,SSW,200,0.0,-999.0,94,-99.99,,,0.00,weatherlink.com 1.10,2013-11-17 19:58:00,
2013-11-17 15:13:00,63.6,62.0,29.95,SSW,200,0.0,-999.0,93,-99.99,,,0.00,weatherlink.com 1.10,2013-11-17 20:13:00,
2013-11-17 15:28:00,63.2,61.0,29.94,ESE,112,0.0,-999.0,92,-99.99,,,0.00,weatherlink.com 1.10,2013-11-17 20:28:00,
2013-11-17 15:43:00,62.3,60.0,29.94,East,80,1.0,-999.0,93,-99.99,,,0.00,weatherlink.com 1.10,2013-11-17 20:43:00,
2013-11-17 15:58:00,61.5,60.0,29.93,East,82,0.0,-999.0,93,-99.99,,,0.00,weatherlink.com 1.10,2013-11-17 20:58:00,
2013-11-17 16:13:00,60.7,59.0,29.93,SE,138,0.0,-999.0,94,-99.99,,,0.00,weatherlink.com 1.10,2013-11-17 21:13:00,
2013-11-17 16:28:00,60.1,59.0,29.92,SE,138,0.0,-999.0,95,-99.99,,,0.00,weatherlink.com 1.10,2013-11-17 21:28:00,
2013-11-17 16:43:00,59.4,58.0,29.91,SE,138,0.0,-999.0,95,-99.99,,,0.00,weatherlink.com 1.10,2013-11-17 21:43:00,
2013-11-17 16:58:00,58.8,58.0,29.91,SE,138,0.0,-999.0,96,-99.99,,,0.00,weatherlink.com 1.10,2013-11-17 21:58:00,
2013-11-17 17:13:00,58.2,57.0,29.91,SE,138,0.0,-999.0,96,-99.99,,,0.00,weatherlink.com 1.10,2013-11-17 22:13:00,
2013-11-17 17:28:00,57.6,57.0,29.89,SE,138,0.0,-999.0,97,-99.99,,,0.00,weatherlink.com 1.10,2013-11-17 22:28:00,
2013-11-17 17:43:00,57.3,57.0,29.89,SE,138,0.0,-999.0,97,-99.99,,,0.00,weatherlink.com 1.10,2013-11-17 22:43:00,
2013-11-17 17:58:00,57.1,56.0,29.89,SE,138,0.0,-999.0,97,-99.99,,,0.00,weatherlink.com 1.10,2013-11-17 22:58:00,
2013-11-17 18:13:00,56.9,56.0,29.88,SE,138,2.0,-999.0,97,-99.99,,,0.00,weatherlink.com 1.10,2013-11-17 23:13:00,
2013-11-17 18:28:00,56.8,56.0,29.88,SE,138,1.0,-999.0,97,-99.99,,,0.00,weatherlink.com 1.10,2013-11-17 23:28:00,
2013-11-17 18:43:00,56.7,56.0,29.88,SE,138,0.0,-999.0,97,-99.99,,,0.00,weatherlink.com 1.10,2013-11-17 23:43:00,
2013-11-17 18:58:00,56.8,56.0,29.88,SE,138,0.0,-999.0,98,-99.99,,,0.00,weatherlink.com 1.10,2013-11-17 23:58:00,
2013-11-17 19:13:00,56.7,56.0,29.88,SE,138,0.0,-999.0,98,-99.99,,,0.00,weatherlink.com 1.10,2013-11-18 00:13:00,
2013-11-17 19:28:00,57.1,57.0,29.87,SSE,149,0.0,-999.0,98,-99.99,,,0.00,weatherlink.com 1.10,2013-11-18 00:28:00,
2013-11-17 19:43:00,57.5,57.0,29.86,SSE,150,0.0,-999.0,98,-99.99,,,0.00,weatherlink.com 1.10,2013-11-18 00:43:00,
2013-11-17 19:58:00,57.6,57.0,29.85,SSE,153,0.0,-999.0,98,-99.99,,,0.00,weatherlink.com 1.10,2013-11-18 00:58:00,
2013-11-17 20:13:00,57.8,57.0,29.85,SSE,155,0.0,-999.0,98,-99.99,,,0.00,weatherlink.com 1.10,2013-11-18 01:13:00,
2013-11-17 20:28:00,58.3,58.0,29.84,South,171,0.0,-999.0,98,-99.99,,,0.00,weatherlink.com 1.10,2013-11-18 01:28:00,
2013-11-17 20:43:00,58.8,58.0,29.84,South,189,0.0,-999.0,98,-99.99,,,0.00,weatherlink.com 1.10,2013-11-18 01:43:00,
2013-11-17 20:58:00,59.2,59.0,29.82,South,185,0.0,-999.0,98,-99.99,,,0.00,weatherlink.com 1.10,2013-11-18 01:58:00,
2013-11-17 21:14:00,59.6,59.0,29.80,South,173,0.0,-999.0,98,-99.99,,,0.00,weatherlink.com 1.10,2013-11-18 02:14:00,
2013-11-17 21:28:00,59.5,59.0,29.79,South,173,0.0,-999.0,97,-99.99,,,0.00,weatherlink.com 1.10,2013-11-18 02:28:00,
2013-11-17 21:43:00,59.3,59.0,29.79,SSE,161,0.0,-999.0,97,-99.99,,,0.00,weatherlink.com 1.10,2013-11-18 02:43:00,
2013-11-17 21:58:00,59.1,58.0,29.79,SSE,161,0.0,-999.0,97,-99.99,,,0.00,weatherlink.com 1.10,2013-11-18 02:58:00,
2013-11-17 22:13:00,59.3,59.0,29.77,South,173,0.0,-999.0,97,-99.99,,,0.00,weatherlink.com 1.10,2013-11-18 03:13:00,
2013-11-17 22:28:00,59.5,59.0,29.77,South,191,5.0,-999.0,97,-99.99,,,0.00,weatherlink.com 1.10,2013-11-18 03:28:00,
2013-11-17 22:43:00,59.5,59.0,29.75,South,172,1.0,-999.0,97,-99.99,,,0.00,weatherlink.com 1.10,2013-11-18 03:43:00,
2013-11-17 22:58:00,59.5,59.0,29.74,South,169,0.0,-999.0,97,-99.99,,,0.00,weatherlink.com 1.10,2013-11-18 03:58:00,
2013-11-17 23:13:00,59.5,59.0,29.72,SE,142,0.0,-999.0,97,-99.99,,,0.00,weatherlink.com 1.10,2013-11-18 04:13:00,
2013-11-17 23:28:00,59.5,59.0,29.71,SSE,160,0.0,-999.0,98,-99.99,,,0.00,weatherlink.com 1.10,2013-11-18 04:28:00,
2013-11-17 23:43:00,59.6,59.0,29.72,South,173,0.0,-999.0,98,-99.99,,,0.00,weatherlink.com 1.10,2013-11-18 04:43:00,
2013-11-17 23:58:00,59.6,59.0,29.71,SSE,168,0.0,-999.0,98,-99.99,,,0.00,weatherlink.com 1.10,2013-11-18 04:58:00,